This is the latest recevied weather packets stored in our database for station/object KC4JES. If no packets are shown the sender has not sent any weather packets the latest 10 day(s).
| Time | Temp. | Humidity | Pressure | Rain* | Wind** | Luminosity | Snow |
|---|---|---|---|---|---|---|---|
| 1777484347 | 30.56° C | 54% | 1014.9 hPa | 0 mm | - | 194 W/m² | - |
| 1777484042 | 31.11° C | 53% | 1015.1 hPa | 0 mm | - | 174 W/m² | - |
| 1777483739 | 31.11° C | 54% | 1015.1 hPa | 0 mm | - | 130 W/m² | - |
| 1777483435 | 31.11° C | 54% | 1015.1 hPa | 0 mm | - | 75 W/m² | - |
| 1777483130 | 31.11° C | 52% | 1015.1 hPa | 0 mm | - | 63 W/m² | - |
| 1777482828 | 31.11° C | 54% | 1015.1 hPa | 0 mm | - | 67 W/m² | - |
| 1777482523 | 31.11° C | 54% | 1015.4 hPa | 0 mm | - | 69 W/m² | - |
| 1777482221 | 31.11° C | 53% | 1015.6 hPa | 0 mm | - | 69 W/m² | - |
| 1777481918 | 30.56° C | 59% | 1015.6 hPa | 0 mm | - | 60 W/m² | - |
| 1777481616 | 30.56° C | 56% | 1015.7 hPa | 0 mm | - | 61 W/m² | - |
| 1777481313 | 30.56° C | 56% | 1015.7 hPa | 0 mm | - | 68 W/m² | - |
| 1777481009 | 30° C | 60% | 1015.8 hPa | 0 mm | - | 76 W/m² | - |
| 1777480706 | 29.44° C | 60% | 1015.8 hPa | 0 mm | - | 62 W/m² | - |
| 1777480403 | 29.44° C | 61% | 1016.1 hPa | 0 mm | - | 59 W/m² | - |
| 1777480098 | 29.44° C | 61% | 1016.2 hPa | 0 mm | - | 56 W/m² | - |
| 1777479795 | 29.44° C | 61% | 1016.3 hPa | 0 mm | - | 54 W/m² | - |
| 1777479493 | 28.89° C | 61% | 1016.2 hPa | 0 mm | - | 53 W/m² | - |
| 1777479189 | 28.89° C | 63% | 1016.3 hPa | 0 mm | - | 54 W/m² | - |
| 1777478881 | 28.33° C | 63% | 1016.2 hPa | 0 mm | - | 58 W/m² | - |
| 1777478576 | 28.33° C | 64% | 1016.5 hPa | 0 mm | - | 67 W/m² | - |
| 1777478274 | 28.33° C | 61% | 1016.6 hPa | 0 mm | - | 67 W/m² | - |
| 1777477970 | 28.33° C | 63% | 1016.7 hPa | 0 mm | - | 79 W/m² | - |
| 1777477666 | 27.78° C | 64% | 1016.7 hPa | 0 mm | - | 88 W/m² | - |
| 1777477363 | 27.78° C | 65% | 1016.6 hPa | 0 mm | - | 83 W/m² | - |
| 1777477059 | 27.78° C | 67% | 1016.6 hPa | 0 mm | - | 87 W/m² | - |
* Rain latest hour (hover to see other rain measurements)
** Current wind speed in m/s (hover to see current wind gust speed)